Simultaneous Nadir Overpasses (SNOs) Predictions

Prediction of SNOs between AQUA and METOP-C Satellite Orbit:

Table of predicted SNOs for the next 14.0 days since TLE Epoch: 10/28/2022
Index Date (AQUA) Time (AQUA) Lat,Lon (AQUA) SZA (AQUA ) Date (METOP-C) Time (METOP-C) Lat,Lon (METOP-C) SZA (METOP-C ) Distance(km) Time Diff (sec)
1 10/30/2022 21:19:13 73.55,-143.67 87.45 10/30/2022 21:18:06 73.47,-146.05 87.39 75.51 67
2 10/30/2022 22:08:48 -74.08, 22.78 92.01 10/30/2022 22:08:37 -74.07, 22.69 92.02 3.18 11
3 10/30/2022 22:58:16 74.14,-169.71 88.07 10/30/2022 22:59:14 74.15,-169.77 88.08 2.19 58
4 11/02/2022 16:02:58 -73.41, 115.68 91.80 11/02/2022 16:01:52 -73.40, 112.86 91.80 89.39 66
5 11/02/2022 16:52:38 74.09, -78.19 88.90 11/02/2022 16:52:17 74.07, -78.21 88.88 2.52 21
6 11/02/2022 17:42:04 -74.16, 89.31 91.03 11/02/2022 17:42:58 -74.17, 89.37 91.01 2.40 54
7 11/05/2022 11:36:26 -74.10,-179.12 90.24 11/05/2022 11:36:02 -74.09,-179.09 90.24 1.15 24
8 11/05/2022 12:25:54 74.16, -11.63 89.84 11/05/2022 12:26:39 74.17, -11.56 89.85 2.63 45
9 11/08/2022 06:20:15 74.09, 79.96 90.58 11/08/2022 06:19:43 74.09, 79.98 90.58 0.70 32
10 11/08/2022 07:09:41 -74.15,-112.53 89.36 11/08/2022 07:10:25 -74.14,-112.57 89.37 1.79 44
11 11/11/2022 01:04:02 -74.11, -21.01 88.62 11/11/2022 01:03:28 -74.09, -20.94 88.63 3.04 34
12 11/11/2022 01:53:29 74.13, 146.58 91.42 11/11/2022 01:54:06 74.12, 146.48 91.41 3.13 37



Historial Predications of SNOs between AQUA and METOP-C
